sat.trackr.live / text

‹ back to catalog

PLEIADES NEO 3

NORAD 48268 · 2021-034A

PAYLOAD ACTIVE UNKNOWN

§ Identity

Operator
Country
FR
Launch date
2021-04-29
Launch site
FRGUI
Launch vehicle
Mass (kg)
RCS (m²)

Purposes: earth_obs

External: N2YO · Heavens-Above · Gunter

§ Orbital elements

Epoch: 2026-05-24T08:19:10.231680Z

Period
97.19 min
Inclination
97.8926°
Eccentricity
0.0001440
Mean motion
14.81678103 rev/d
Perigee alt
623.0 km
Apogee alt
625.0 km
Semi-major
7,002.2 km
B*
7.0866e-5
RAAN
219.4559°
Arg perigee
94.5632°
Mean anomaly
265.5745°
Rev number
27,412

§ Raw data

PLEIADES NEO 31 48268U 21034A   26144.34664620  .00000506  00000+0  70866-4 0  99972 48268  97.8926 219.4559 0001440  94.5632 265.5745 14.81678103274123

JSON: /api/v1/satellites/48268 · /tle

For live sub-satellite position, see the globe view (requires WebGL).

§ Visibility from observer

Set your observer location to see the next 7 days of passes ≥ 10°. The values pass through the URL so the page stays shareable.

No JS? Fill the form by hand. The geolocation button needs JavaScript.

§ Radio — SatNOGS DB

ModeDescriptionDownlinkUplink
BPSK S-band telemetry 2.266 GHz

1 transmitter · refreshed weekly from db.satnogs.org